C/2020 S4 ( PanSTARRS )

Japanese version
Home page
Updated on September 18, 2021

---------------------------------------------------------------------

* Profile

Discovery Date September 16, 2020
Magnitude 21.3 mag
Discoverer Pan-STARRS 1 telescope (Haleakala)

* Pictures

* Orbital Elements

Epoch 2023 Feb. 25.0 TT = JDT 2460000.5
T 2023 Feb.  9.25362 TT                                 Rudenko
q   3.3697146            (2000.0)            P               Q
z  -0.0003435      Peri.   20.99163     -0.73121039     -0.60712619
 +/-0.0000067      Node   117.72254     +0.56505167     -0.79449791
e   1.0011574      Incl.   20.56952     +0.38216223     +0.01307139
From 151 observations 2020 Sept. 16-2021 Aug. 30, mean residual 0".4.

* Finding Charts

* Magnitudes Graph

        m1 = 7.0 + 5 log d + 10.0 log r

---------------------------------------------------------------------

The orbital elements are published on M.P.E.C. 2021-R75.
The charts are made with StellaNavigator Ver.10 (AstroArts).
The magnitudes graphs are made with Comet for Windows.

---------------------------------------------------------------------

Copyright(C) Seiichi Yoshida (comet@aerith.net). All rights reserved.